Weather History for Hibbing, MN

Change the Weather History Date:

Saturday, September 8, 2012

  Actual Average Record
Temperature  
Mean Temperature 48 °F -  
Max Temperature 61 °F 67 °F 88 °F (2002)
Min Temperature 37 °F 45 °F 28 °F (2006)
Degree Days  
Heating Degree Days 16    
Moisture  
Dew Point 45 °F    
Average Humidity 89    
Maximum Humidity 100    
Minimum Humidity 64    
Precipitation  
Precipitation 0.09 in - - ()
Sea Level Pressure  
Sea Level Pressure 29.91 in    
Wind  
Wind Speed 6 mph (NW)    
Max Wind Speed 20 mph    
Max Gust Speed 29 mph    
Visibility 7 miles    
Events Fog , Rain    
Averages and records for this station are not official NWS values.
T = Trace of Precipitation, MM = Missing Value Source: NWS Daily Summary

Daily Weather History Graph

Daily Weather History Graph

Search for Another Location

Airport:

Trip Planner

Search our weather history database for the weather conditions in past years. The results will help you decide how hot, cold, wet, or windy it might be!

Date:

Astronomy

Sep. 08, 2012 Rise Set
Actual Time 6:40 AM CDT 7:36 PM CDT
Civil Twilight 6:08 AM CDT 8:07 PM CDT
Nautical Twilight 5:31 AM CDT 8:44 PM CDT
Astronomical Twilight 4:52 AM CDT 9:24 PM CDT
Moon 11:52 PM CDT (9/8) 2:52 PM CDT (9/8)
Length of Visible Light 13h 58m
Length of Day
12h 56m
Waning Gibbous, 48% of the Moon is Illuminated
Sep 8
Waning Gibbous
Sep 15
New
Sep 22
First Quarter
Sep 29
Full
Oct 8
Last Quarter

Hourly Weather History & Observations

Time (CDT) Temp. Windchill Dew Point Humidity Pressure Visibility Wind Dir Wind Speed Gust Speed Precip Events Conditions
12:53 AM 50.0 °F - 46.0 °F 86% 29.99 in 10.0 mi NW 5.8 mph - N/A   Clear
1:53 AM 48.9 °F - 45.0 °F 86% 30.00 in 10.0 mi NW 8.1 mph - N/A   Clear
2:53 AM 46.9 °F - 45.0 °F 93% 29.98 in 10.0 mi Calm Calm - N/A   Clear
3:53 AM 37.9 °F - 37.0 °F 97% 29.97 in 6.0 mi Calm Calm - N/A   Clear
4:05 AM 39.2 °F - 39.2 °F 100% 29.94 in 1.8 mi Calm Calm - N/A   Clear
4:39 AM 39.2 °F 37.0 °F 39.2 °F 100% 29.93 in 4.0 mi SW 3.5 mph - N/A   Clear
4:47 AM 41.0 °F 38.0 °F 39.2 °F 93% 29.93 in 2.5 mi SW 4.6 mph - N/A   Partly Cloudy
4:53 AM 42.1 °F 39.2 °F 41.0 °F 96% 29.95 in 1.0 mi SW 4.6 mph - N/A   Mist
5:00 AM 41.0 °F 39.0 °F 39.2 °F 93% 29.92 in 0.8 mi SW 3.5 mph - N/A   Mist
5:39 AM 37.4 °F - 37.4 °F 100% 29.91 in 0.2 mi Calm Calm - N/A Fog Fog
5:50 AM 37.4 °F - 37.4 °F 100% 29.90 in 0.5 mi Calm Calm - N/A Fog Fog
5:53 AM 37.0 °F - 37.0 °F 100% 29.93 in 0.5 mi Calm Calm - N/A Fog Fog
6:34 AM 39.2 °F 37.0 °F 39.2 °F 100% 29.89 in 0.2 mi SSW 3.5 mph - N/A Fog Fog
6:53 AM 41.0 °F - 39.9 °F 96% 29.91 in 0.2 mi Calm Calm - N/A Fog Fog
7:49 AM 42.8 °F 41.1 °F 42.8 °F 100% 29.85 in 0.5 mi Variable 3.5 mph - N/A Fog Fog
7:53 AM 42.1 °F 40.2 °F 42.1 °F 100% 29.88 in 0.8 mi Variable 3.5 mph - N/A   Overcast
8:34 AM 44.6 °F 43.1 °F 44.6 °F 100% 29.82 in 3.0 mi SSW 3.5 mph - N/A   Overcast
8:53 AM 46.4 °F 45.2 °F 46.4 °F 100% 29.81 in 10.0 mi Variable 3.5 mph - N/A   Overcast
9:53 AM 51.1 °F - 48.0 °F 89% 29.82 in 10.0 mi WSW 3.5 mph - N/A   Overcast
10:53 AM 54.0 °F - 48.9 °F 83% 29.81 in 10.0 mi NW 11.5 mph 20.7 mph 0.03 in Rain Light Rain
11:21 AM 51.8 °F - 51.8 °F 100% 29.80 in 8.0 mi NW 11.5 mph - 0.00 in Rain Light Rain
11:53 AM 55.9 °F - 54.0 °F 93% 29.82 in 10.0 mi NW 13.8 mph 18.4 mph 0.00 in   Overcast
12:02 PM 57.2 °F - 55.4 °F 94% 29.80 in 10.0 mi NNW 13.8 mph 21.9 mph N/A   Mostly Cloudy
12:48 PM 57.2 °F - 48.2 °F 72% 29.80 in 10.0 mi NNW 12.7 mph 24.2 mph 0.00 in Rain Light Rain
12:53 PM 57.9 °F - 50.0 °F 75% 29.82 in 10.0 mi NNW 18.4 mph 23.0 mph 0.00 in Rain Light Rain
1:53 PM 55.9 °F - 51.1 °F 84% 29.85 in 10.0 mi North 15.0 mph 24.2 mph 0.06 in Rain Light Rain
2:53 PM 57.0 °F - 50.0 °F 77% 29.87 in 10.0 mi NNW 18.4 mph 27.6 mph 0.00 in   Overcast
3:00 PM 57.2 °F - 50.0 °F 77% 29.85 in 10.0 mi NNW 18.4 mph 26.5 mph N/A   Overcast
3:53 PM 60.1 °F - 50.0 °F 69% 29.88 in 10.0 mi North 18.4 mph 28.8 mph 0.00 in   Mostly Cloudy
4:53 PM 60.1 °F - 48.0 °F 64% 29.90 in 10.0 mi North 18.4 mph 25.3 mph N/A   Mostly Cloudy
5:53 PM 57.9 °F - 48.0 °F 70% 29.94 in 10.0 mi North 19.6 mph 24.2 mph 0.00 in   Mostly Cloudy
6:53 PM 57.0 °F - 48.9 °F 74% 29.96 in 10.0 mi North 17.3 mph - N/A   Scattered Clouds
7:53 PM 54.0 °F - 48.0 °F 80% 29.99 in 10.0 mi North 10.4 mph - N/A   Clear
8:53 PM 52.0 °F - 48.9 °F 89% 30.02 in 10.0 mi NNW 6.9 mph - N/A   Scattered Clouds
9:53 PM 51.8 °F - 48.2 °F 88% 30.01 in 10.0 mi North 8.1 mph - N/A   Mostly Cloudy
10:53 PM 50.0 °F - 46.9 °F 89% 30.05 in 10.0 mi NNW 5.8 mph - N/A   Partly Cloudy
11:53 PM 50.0 °F - 46.9 °F 89% 30.06 in 10.0 mi NNW 10.4 mph - N/A   Clear